Location: Veytaux
(46.4185°N, 6.9320°E)
Time: 07:57:30
(UTC+00:00)

Cosmos 2333 Rocket - Pass Details

Date: 27 May 2022
Orbit: 839 x 863 km, 70.8° (Epoch: 01 July)

Event Time Altitude Azimuth Distance (km) Brightness Sun altitude
Exits shadow 00:07:16 16° 254° (WSW) 2,064 4.0 -21.8°
Maximum altitude 00:11:01 32° 309° (NW) 1,416 3.6 -21.7°
Drops below altitude 10° 00:16:05 10° 12° (NNE) 2,478 5.8 -21.5°
Sets 00:18:49 0° 22° (NNE) 3,421 6.8 -21.4°
